Location: Mexico
(19.4000°N, 99.1500°W)
Time: 04:38:19
(UTC-06:00)

ISS - Pass Details

Date: 10 April 2020
Orbit: 417 x 419 km, 51.6° (Epoch: 31 May)

Event Time Altitude Azimuth Distance (km) Brightness Sun altitude
Rises 20:06:20 0° 306° (NW) 2,349 1.4 -17.7°
Reaches altitude 10° 20:08:38 10° 293° (WNW) 1,484 0.3 -18.2°
Maximum altitude 20:11:28 26° 234° (SW) 859 -1.8 -18.8°
Enters shadow 20:13:13 17° 189° (S) 1,139 -1.7 -19.2°
